{"data":{"norad_id":65758,"intl_designator":"2025-216AA","name":"STARLINK-35313","alt_names":[],"object_type":"PAYLOAD","status":"ACTIVE","operator":null,"country":"US","launch_date":"2025-09-25","launch_site_code":"AFETR","launch_vehicle":null,"mission":null,"orbit_class":"UNKNOWN","rcs_meters":null,"size_class":null,"mass_kg":null,"dimensions":null,"purposes":["comms"],"wikipedia_slug":null,"has_3d_model":false,"image_url":null,"decayed_at":null,"tle_current":{"epoch":"2026-05-24T18:41:43.694880Z","epoch_age_seconds":84338,"freshness":"FRESH","line1":"1 65758U 25216AA  26144.77897795  .00015573  00000+0  53664-3 0  9990","line2":"2 65758  53.1596 339.4254 0000978  95.2549 264.8564 15.30211300 38158","mean_motion":15.302113,"eccentricity":9.78e-5,"inclination_deg":53.1596,"raan_deg":339.4254,"arg_perigee_deg":95.2549,"mean_anomaly_deg":264.8564,"bstar":0.00053664,"rev_number":3815,"period_min":94.104650776007,"perigee_km":474.51107533113,"apogee_km":475.85158439645,"semimajor_km":6853.3183298638,"source":"CELESTRAK","updated_at":"2026-05-25T13:38:20.934686Z"}}}